Theta_e
310 310 310 310 310 311 311 311 311 312 312 312 313 313 313 313 313 313 312 311 312 314 315 315 315 314 314 313 314 315 315 316 315 313 314 313 312 312 313 313 314 313 312 313 314 315 315 314 314 316 319 318 317 319 319 316 316 318 320 318 315 317 318 317 318 317 316 316 314 310 309 313 313 309 305 305 306 308 307 306 308 307 305 305 302 301 302 303
308 308 308 308 308 308 308 308 309 309 310 310 310 311 312 312 312 312 312 311 311 312 314 315 315 315 314 314 314 314 315 316 315 313 313 312 311 311 311 312 313 313 312 313 314 315 315 314 315 316 318 318 316 318 319 316 316 318 319 317 316 319 318 315 316 315 315 315 313 311 310 311 313 311 307 308 311 308 308 309 307 307 307 304 301 301 302 302
307 307 307 307 307 306 306 306 307 307 308 308 309 309 310 310 310 311 311 311 310 311 313 314 315 315 314 314 314 314 315 316 315 315 314 312 311 311 310 310 311 313 312 312 313 314 314 314 315 316 316 317 316 317 319 316 317 317 317 317 318 319 317 314 313 314 313 312 313 312 309 309 311 310 307 310 312 309 310 311 309 309 309 306 302 302 302 302
308 307 307 307 307 307 306 306 306 307 307 307 308 308 308 309 309 310 310 310 310 310 312 314 314 315 315 315 314 314 315 317 317 316 313 311 311 311 311 310 311 313 312 312 313 312 313 313 314 315 316 317 315 316 317 315 316 316 315 318 317 315 315 314 312 313 311 310 312 311 309 309 309 308 308 310 312 312 312 313 312 311 311 308 303 302 303 302
308 308 307 307 307 307 307 307 307 307 307 307 307 308 308 308 308 308 309 309 310 309 312 313 314 315 315 315 314 314 315 317 318 315 312 311 311 312 311 310 311 313 312 312 313 312 312 313 313 315 316 317 316 317 315 312 313 315 314 315 314 313 314 314 311 311 309 308 310 310 310 310 308 307 309 310 312 314 313 312 312 312 313 309 303 303 303 303
309 309 309 308 308 307 307 307 307 307 307 307 307 307 308 308 308 308 308 309 309 309 311 313 314 315 315 314 314 315 316 316 316 314 313 312 311 312 311 310 311 312 311 312 312 313 314 313 314 316 316 316 316 316 314 310 310 315 315 312 311 312 313 312 309 309 308 308 310 310 310 309 308 310 309 309 311 314 311 308 308 309 310 308 304 304 303 303
310 310 310 309 309 308 308 308 308 307 307 307 307 307 307 308 308 308 309 308 309 309 311 314 314 314 314 314 314 316 317 318 315 315 314 312 311 312 312 311 311 312 311 312 313 315 316 314 315 316 316 316 315 314 313 310 309 314 315 312 311 310 311 311 308 308 307 309 310 307 308 308 310 311 308 308 310 311 309 305 304 305 307 307 305 303 303 303
310 310 310 310 310 310 309 309 308 308 307 307 307 307 307 308 308 308 308 308 309 310 312 313 313 315 315 314 316 317 317 317 315 315 315 312 312 312 312 311 310 311 311 311 313 316 317 316 315 313 316 316 314 314 311 310 311 312 314 313 311 309 310 310 307 307 307 307 307 305 308 310 310 309 306 308 310 310 309 306 304 304 305 305 304 303 303 304
309 309 310 310 311 311 311 310 309 309 308 307 307 307 307 307 308 308 308 309 309 309 312 312 313 316 316 316 317 318 318 316 314 315 314 313 312 312 312 311 311 311 311 312 312 314 316 316 315 313 316 315 313 314 310 312 314 312 313 312 311 311 311 309 308 308 307 307 307 307 311 311 307 307 308 310 310 309 309 307 304 303 304 304 304 303 303 303
308 308 309 310 310 311 311 311 310 310 309 308 307 307 307 307 307 308 308 308 309 310 312 312 313 315 316 316 317 316 316 315 313 313 313 313 312 312 312 311 310 311 311 311 311 313 315 316 315 313 315 314 312 312 310 312 312 310 310 310 310 311 309 308 308 308 306 307 307 309 312 311 306 306 312 311 306 305 307 306 304 303 304 304 304 303 304 304
308 308 308 308 309 310 310 311 311 311 310 309 309 308 307 307 307 308 308 308 308 310 311 312 313 314 316 316 317 316 315 314 313 313 312 312 312 311 311 310 310 311 311 312 311 312 313 314 312 312 315 313 312 310 309 309 309 308 309 310 310 309 309 307 307 307 307 308 306 308 310 309 306 306 312 311 303 302 306 306 303 303 305 305 304 303 304 304
308 308 307 307 308 308 309 310 310 310 310 310 310 309 308 308 308 308 307 308 309 310 311 313 314 314 315 315 316 317 314 313 313 312 311 311 311 311 310 310 310 310 311 312 311 310 311 311 311 313 314 312 312 311 309 307 306 307 308 311 312 311 312 309 308 307 307 309 306 307 310 309 309 309 312 310 303 302 304 306 305 303 304 304 304 303 302 303
309 308 308 307 307 307 308 308 309 309 310 310 310 309 309 308 307 308 308 308 310 311 312 314 314 314 315 315 315 315 314 313 312 311 310 310 311 311 310 310 310 310 311 312 311 310 311 310 311 312 311 311 313 309 308 305 305 308 308 310 313 313 314 310 307 306 308 309 305 307 311 313 312 312 312 309 304 303 304 306 306 304 304 303 303 302 301 302
309 309 308 308 308 308 307 307 307 308 308 309 309 309 308 308 308 307 308 309 310 311 313 313 313 314 315 314 314 313 313 313 312 311 310 311 311 311 310 311 311 311 311 311 310 310 310 309 310 311 309 309 309 307 308 307 307 309 309 310 313 313 313 311 307 307 310 307 304 308 312 314 315 314 313 309 304 305 306 307 308 306 304 302 302 301 301 301
310 309 308 309 309 308 308 307 306 307 307 308 308 309 308 308 308 307 308 310 311 312 313 313 314 315 314 314 313 312 313 312 312 311 310 310 311 311 310 311 311 311 311 311 310 310 309 309 311 312 309 305 307 309 313 312 310 311 310 312 315 312 313 313 308 307 311 307 304 309 312 314 315 315 313 307 303 304 306 308 308 307 306 303 302 301 301 301
310 309 309 309 308 308 308 307 306 306 307 308 308 308 308 307 307 308 309 311 313 313 314 315 315 314 314 314 312 312 312 312 312 311 310 310 310 311 311 310 311 311 310 310 310 309 309 310 311 310 309 307 310 313 315 314 313 313 311 312 315 313 313 313 308 305 308 309 307 309 312 313 314 314 311 304 303 304 305 308 309 308 307 304 303 302 301 301
310 310 309 309 308 308 308 307 307 306 306 307 307 308 307 308 308 308 310 312 314 314 315 316 314 313 312 312 312 312 312 312 313 312 311 310 309 310 310 310 311 310 311 310 310 311 311 311 310 310 310 309 311 314 315 313 313 314 313 312 314 314 311 311 310 305 304 308 309 309 310 312 312 313 311 306 305 306 306 308 309 308 308 306 304 303 301 301
311 311 310 310 309 308 308 307 307 306 306 307 307 308 307 308 308 309 311 312 313 312 312 313 313 312 311 311 312 313 311 311 313 312 310 310 309 310 310 310 309 311 312 312 311 312 312 312 312 314 314 310 311 314 315 313 313 314 312 312 312 312 311 311 311 307 305 307 309 310 310 310 311 311 312 310 307 307 308 309 309 309 309 307 306 304 302 301
312 311 312 312 310 309 307 307 307 306 307 307 307 308 308 310 309 309 310 309 311 313 312 313 313 312 313 312 312 311 311 312 313 312 310 310 309 309 309 309 311 312 312 313 313 313 313 314 314 315 316 315 314 314 315 316 316 314 314 313 313 312 311 312 311 306 305 307 308 309 310 310 311 310 311 311 310 308 308 309 309 310 308 307 306 305 303 301
312 312 313 312 311 310 308 307 307 308 308 308 308 308 309 311 311 310 310 309 310 311 313 314 313 314 314 313 312 311 312 312 311 311 310 310 309 309 309 309 314 314 312 315 317 312 312 316 317 317 318 317 315 314 315 315 312 313 315 314 314 314 312 313 311 304 303 307 308 309 309 309 310 310 310 310 310 309 309 309 309 309 308 308 307 306 303 301
312 312 312 312 311 310 309 308 308 308 309 309 309 310 309 310 311 310 309 310 310 307 309 311 309 311 311 310 311 311 312 311 310 310 310 309 309 310 310 310 313 314 314 317 315 310 311 316 318 318 317 315 314 312 311 311 310 311 314 314 314 314 313 312 309 304 303 306 309 309 309 310 310 310 310 310 311 310 310 310 309 309 310 309 309 307 304 302
311 310 311 313 313 311 310 309 308 308 309 310 310 310 308 308 310 307 306 310 312 306 308 309 306 308 308 306 308 310 311 311 311 311 310 308 309 311 311 311 312 314 315 314 313 313 314 316 317 317 314 311 309 307 307 309 310 310 312 313 313 313 313 311 308 305 304 306 310 310 309 310 310 310 310 310 311 311 311 311 311 311 311 310 310 308 305 303
311 310 311 313 312 311 310 309 307 307 308 309 309 308 307 307 308 306 307 311 312 310 311 312 309 310 310 307 307 309 310 310 311 312 310 308 309 311 311 310 311 314 314 313 314 316 315 315 313 311 310 309 307 304 306 309 309 311 312 312 313 314 313 311 309 305 305 307 308 309 309 310 310 310 311 311 310 310 309 310 310 311 311 311 310 308 305 303
312 310 311 312 312 312 311 307 307 308 309 309 308 307 307 308 308 308 310 312 312 312 312 311 309 311 312 309 308 309 310 310 310 310 309 309 310 310 311 310 311 313 312 312 314 315 316 313 306 306 308 311 310 305 306 310 311 312 312 313 314 315 313 312 310 306 307 308 306 308 310 311 314 314 313 311 308 308 307 306 308 309 310 310 309 307 305 304
312 311 311 312 313 313 309 308 308 308 309 309 308 307 307 308 308 307 308 311 313 311 310 309 309 312 311 308 309 310 310 312 311 309 306 308 309 309 309 310 310 312 313 312 312 315 316 308 305 309 309 310 312 308 309 312 313 312 312 313 313 313 313 312 310 309 310 312 308 310 312 312 316 317 314 312 310 311 310 309 311 310 309 308 306 305 305 304
313 312 310 311 312 311 308 309 309 307 310 310 308 307 306 307 308 307 306 308 311 311 310 310 312 312 310 308 309 310 311 311 307 304 305 307 308 308 309 309 309 311 313 312 311 315 314 304 305 313 312 311 313 311 312 311 312 313 312 313 312 310 311 311 310 310 312 313 310 310 312 313 314 312 313 314 313 313 314 313 314 312 311 310 306 305 305 303
312 313 312 310 310 309 309 309 308 308 310 310 308 307 305 306 306 306 306 306 310 313 312 310 311 312 310 309 308 309 311 309 304 303 304 306 307 308 310 310 309 309 308 311 312 313 313 306 306 311 312 312 312 313 314 310 311 315 311 310 311 309 310 310 310 310 311 311 309 309 311 313 313 312 312 314 312 313 313 313 314 313 313 312 308 306 305 304
312 313 313 311 310 309 309 309 309 310 310 309 308 306 306 306 305 306 305 305 310 315 314 311 309 309 309 307 305 308 309 307 309 307 302 303 306 307 310 310 311 310 306 310 314 313 312 312 311 310 310 311 312 314 314 310 313 313 306 305 307 308 309 309 310 310 309 309 310 311 311 312 314 313 312 311 312 313 312 313 314 314 315 314 310 307 306 305
313 312 312 311 310 310 310 310 310 310 309 309 308 306 306 305 305 307 305 306 312 313 313 311 309 308 309 308 308 308 306 306 310 307 302 304 305 306 309 308 309 310 306 308 315 316 311 308 309 311 311 313 313 309 307 312 313 307 303 305 305 306 307 307 308 309 308 309 312 312 311 312 313 314 311 309 311 313 313 313 313 314 316 315 311 308 306 305
314 313 312 311 310 310 311 311 310 309 309 309 308 307 306 305 306 308 306 308 312 312 310 309 310 310 310 310 311 309 308 308 306 304 305 305 305 305 306 305 306 310 309 308 313 314 307 302 305 310 311 311 309 302 300 307 308 304 305 308 308 307 305 305 307 308 310 313 314 313 312 312 312 314 313 311 311 312 313 313 313 314 315 314 311 308 306 304
315 314 313 312 311 310 311 311 310 310 309 309 309 307 307 307 307 308 308 309 310 311 310 311 310 311 311 314 315 310 309 310 306 305 306 305 306 306 306 307 308 310 312 311 312 313 309 306 307 310 309 306 307 304 301 301 302 304 308 310 312 311 308 307 307 308 311 315 312 311 313 312 312 313 312 312 312 311 313 313 313 314 315 316 315 310 306 304
316 314 314 312 311 310 309 310 310 310 309 309 308 307 308 309 308 307 306 306 308 311 314 316 312 311 312 314 316 313 311 312 307 306 308 308 308 308 309 312 312 313 314 314 314 314 313 311 310 310 307 306 310 310 305 302 302 306 309 310 314 315 312 312 312 311 313 315 311 308 310 311 312 312 311 312 312 311 312 312 314 315 315 319 321 313 306 303
316 315 315 313 312 310 309 310 310 310 310 308 307 308 308 309 311 310 307 306 310 313 314 317 313 312 313 313 316 314 312 313 308 306 309 310 309 310 312 313 314 315 314 312 314 313 314 313 310 310 308 307 310 312 311 308 305 306 310 312 314 315 314 315 313 311 312 314 310 305 308 311 310 311 312 312 311 312 312 312 317 317 316 319 319 312 304 300
317 316 315 314 313 312 310 311 310 310 310 308 307 308 307 309 311 311 310 309 312 312 312 315 314 312 313 314 316 314 313 315 311 307 309 309 308 310 311 312 313 314 312 311 312 312 314 315 310 311 312 309 309 312 315 312 306 307 310 312 314 314 313 313 311 310 312 313 310 306 309 312 310 311 313 312 311 313 312 314 317 316 315 314 310 305 302 299
318 316 315 315 314 312 311 310 309 310 310 308 308 311 310 310 310 310 311 310 312 313 312 311 313 313 313 314 315 314 315 316 313 309 309 309 309 310 311 312 311 312 314 313 313 312 313 315 314 311 310 309 310 313 314 311 308 307 308 310 313 313 312 311 312 312 310 312 312 309 310 312 311 312 314 314 313 312 312 314 314 313 312 310 306 304 301 298
318 317 315 315 314 313 311 310 309 309 309 308 309 312 311 309 311 312 312 309 312 316 313 310 313 313 312 313 314 314 314 313 312 311 311 310 311 311 313 315 311 310 313 314 315 315 312 313 313 308 307 305 305 308 309 311 311 307 307 310 311 311 311 311 313 311 308 310 313 312 312 312 311 312 312 313 312 311 311 312 311 312 312 310 309 306 302 299
317 316 315 314 314 313 311 310 309 309 309 309 310 311 312 310 310 312 312 309 310 314 313 311 312 313 313 312 313 314 313 311 310 311 312 311 312 313 313 314 312 310 312 313 316 317 314 313 312 309 310 304 299 302 306 307 308 307 308 311 309 308 310 310 312 312 311 313 314 313 313 312 311 313 312 311 311 310 311 311 310 310 310 310 310 308 304 302
317 315 315 314 314 314 312 309 310 309 308 309 311 312 313 311 307 309 311 310 310 313 313 310 310 313 314 312 312 314 313 312 311 310 312 311 312 314 313 313 313 310 310 312 316 318 316 314 313 308 307 303 298 303 307 304 304 305 305 307 308 310 311 310 311 312 313 314 314 313 313 312 311 312 312 311 311 311 311 311 310 309 308 309 309 308 305 303
316 315 316 314 313 313 311 309 310 310 309 309 311 312 313 310 307 309 311 310 311 312 311 309 309 312 313 312 313 313 312 313 313 311 311 312 313 313 312 314 315 311 309 310 313 316 314 314 314 306 302 303 302 305 309 307 304 303 303 304 305 308 311 311 310 311 312 313 314 315 315 314 313 313 313 313 313 313 312 311 311 309 308 309 307 305 304 302
316 316 316 314 313 313 311 310 310 311 311 311 310 312 312 310 310 310 309 308 311 311 309 310 311 310 311 314 314 312 312 313 313 311 311 311 312 313 311 313 317 313 309 310 313 315 313 313 314 307 301 305 306 306 310 310 306 303 305 306 305 305 308 308 308 309 311 312 313 314 314 313 313 314 314 313 313 313 313 312 313 312 310 309 308 305 303 302
315 318 315 312 313 312 310 310 311 311 312 312 311 311 311 309 310 310 308 308 310 309 307 309 311 309 309 312 311 311 311 312 311 310 311 311 311 312 312 312 316 314 309 309 312 314 313 313 314 311 307 308 310 309 311 312 310 307 306 307 307 307 308 309 310 310 310 312 313 313 314 313 313 316 314 312 313 314 314 315 315 314 312 309 307 305 304 303
317 319 315 311 311 310 309 310 311 311 313 313 312 312 312 310 311 310 308 308 309 308 307 308 310 310 310 309 309 312 312 312 312 311 311 312 311 311 313 313 313 313 311 311 311 313 315 315 314 314 313 311 308 306 305 308 311 310 308 309 309 309 309 311 312 312 310 311 311 312 313 313 314 317 315 314 315 314 317 319 316 314 313 310 307 305 303 302
319 317 312 310 310 310 310 311 311 311 313 313 313 313 313 312 313 311 309 308 308 308 308 308 308 308 308 309 310 311 311 312 314 313 312 314 314 310 312 313 311 312 312 312 312 312 315 316 314 314 314 312 306 301 300 302 307 309 308 308 309 308 310 311 311 310 311 311 311 311 312 313 314 317 315 314 317 317 317 319 317 316 314 311 309 305 302 301
319 314 309 309 310 310 312 314 313 312 312 313 314 314 313 313 313 312 310 309 309 308 307 307 307 306 307 308 308 308 309 309 313 314 312 314 314 311 313 313 311 311 312 312 313 312 313 316 315 314 315 314 310 306 304 303 304 307 307 307 308 309 309 310 309 308 310 312 311 312 313 313 314 317 315 312 314 315 313 312 312 313 313 311 310 306 302 299
317 313 309 309 309 310 313 316 315 314 313 313 314 315 314 314 313 312 312 311 309 308 307 308 308 307 307 308 307 307 309 308 309 312 312 312 311 311 313 313 311 311 312 314 315 313 314 316 314 313 313 314 313 312 310 307 304 306 307 306 307 309 309 309 309 309 311 312 311 311 313 312 312 315 314 312 312 312 310 309 308 308 308 308 307 305 302 299
318 316 311 309 309 310 312 313 313 313 313 313 314 314 315 315 314 314 314 313 310 309 310 310 309 307 307 308 307 306 308 308 308 310 312 312 311 310 311 311 311 312 313 315 315 313 315 316 313 312 313 312 312 313 312 310 306 306 307 307 307 309 309 310 310 311 312 311 311 312 312 312 312 312 311 312 312 311 310 310 310 309 307 305 304 304 303 300
318 318 313 310 310 310 310 310 311 312 312 313 314 315 315 315 315 314 314 314 313 312 312 311 310 309 309 309 308 307 308 308 309 308 309 310 310 310 310 309 310 311 311 313 314 313 314 315 312 312 312 311 312 311 311 311 309 307 308 308 307 308 310 311 311 311 312 311 311 313 313 313 313 311 311 312 311 311 311 311 311 310 309 306 304 305 305 301
318 318 314 312 313 312 310 310 310 310 311 312 313 315 316 316 316 315 315 314 314 313 313 313 312 312 311 310 310 309 308 308 308 308 308 309 308 309 309 309 310 311 310 310 312 312 313 314 313 313 313 311 311 310 310 311 310 309 309 309 308 309 310 311 311 311 312 312 312 312 313 313 312 311 311 311 311 311 311 310 310 310 310 308 306 307 306 304
317 318 315 313 315 314 311 309 309 309 309 311 312 314 315 316 316 316 315 314 314 313 313 314 314 313 312 312 311 310 310 310 311 310 308 308 309 309 309 309 311 311 310 310 311 312 312 312 313 312 312 312 312 311 311 311 310 310 310 310 310 309 310 310 311 311 311 311 312 312 312 313 312 311 311 311 311 311 310 310 310 309 309 309 308 308 308 308
315 317 315 312 313 314 312 310 310 310 309 310 311 313 313 314 315 315 315 315 314 314 313 314 315 315 314 313 313 312 311 311 311 311 310 309 310 310 310 310 310 311 310 310 311 312 310 310 311 311 312 312 312 311 311 310 310 310 310 310 310 309 309 310 310 310 310 311 310 311 311 311 311 310 311 310 310 310 310 309 309 309 309 309 309 309 308 309
311 313 313 313 313 313 312 311 311 311 310 310 311 312 313 313 313 314 315 314 315 315 314 313 314 314 314 314 313 313 313 312 311 310 310 310 310 311 312 312 311 311 310 310 310 310 310 310 310 310 312 313 311 311 311 310 310 310 310 310 310 309 309 310 310 310 310 310 310 311 311 311 310 310 310 310 310 309 309 309 309 309 309 309 309 308 308 308
308 309 311 314 314 313 313 312 311 311 311 311 310 311 312 313 313 313 315 314 314 314 314 314 314 313 313 313 313 313 313 313 312 311 311 311 312 313 314 313 312 311 310 309 309 309 310 311 311 311 312 313 312 312 311 311 313 313 311 311 310 310 310 310 311 311 311 311 311 311 311 310 310 310 310 310 310 310 310 309 309 309 309 309 309 308 308 308
Wind_Speed
12 12 13 14 15 15 16 17 17 18 18 18 18 17 17 17 17 18 18 19 17 13 10 10 7 5 6 7 8 8 8 9 7 5 7 6 6 6 4 3 2 2 2 1 4 8 5 3 4 6 6 3 1 0 2 1 0 2 2 3 3 2 2 2 5 4 1 1 4 6 9 10 6 6 4 2 5 6 5 7 8 6 6 3 3 4 11 23
11 11 12 13 14 15 16 17 17 18 18 18 18 18 17 17 17 17 17 18 18 14 10 9 8 5 6 8 8 8 8 8 7 7 9 7 6 5 3 3 3 3 2 2 5 8 6 3 5 6 4 2 1 0 2 0 1 2 1 3 3 1 1 1 3 3 2 1 2 4 7 8 5 5 6 5 7 8 9 9 9 10 11 9 6 8 16 23
11 11 12 12 14 15 15 16 17 17 18 18 18 18 18 17 17 17 17 17 17 16 12 9 8 6 6 7 8 7 6 7 6 6 9 9 7 5 3 2 2 4 3 2 5 7 5 4 8 6 2 1 1 0 1 0 1 1 1 5 2 1 2 2 4 5 4 1 1 3 4 6 5 4 6 6 7 8 11 11 9 12 16 13 11 13 19 23
11 11 11 12 13 14 15 16 16 17 17 18 18 18 18 17 17 17 17 16 17 17 13 10 8 5 5 6 7 6 3 4 4 5 10 11 7 4 3 2 2 3 3 3 5 4 3 6 7 3 1 2 1 1 2 1 1 1 2 4 1 2 3 2 4 4 2 2 4 2 3 6 4 4 6 6 7 10 13 13 12 14 15 13 14 16 21 24
10 11 12 12 13 14 15 15 16 16 17 17 18 18 18 18 18 18 17 17 16 16 13 10 8 5 4 4 5 5 2 3 2 8 11 11 7 4 2 1 2 4 3 3 4 5 5 6 4 2 1 3 2 2 2 2 1 2 2 2 2 3 3 1 2 2 2 2 3 4 4 4 3 5 9 9 11 11 5 7 11 13 10 11 16 17 20 22
11 11 12 12 13 14 15 15 15 16 16 17 17 18 18 18 18 17 18 17 17 17 12 8 8 5 2 2 4 5 4 2 2 7 9 9 7 4 2 1 2 4 4 4 4 4 3 3 4 4 1 2 3 3 1 2 1 3 2 1 2 3 3 0 2 2 3 4 5 4 2 2 3 7 9 12 18 11 3 4 3 6 5 10 17 18 19 20
12 12 12 13 13 14 15 15 16 16 16 17 17 18 18 18 18 18 18 17 17 17 12 7 7 5 0 3 4 4 3 4 3 7 8 8 7 4 2 1 2 4 4 4 4 3 2 2 3 3 2 2 3 3 1 1 2 4 3 2 2 2 5 1 2 2 3 6 4 1 1 4 8 6 3 11 20 14 3 4 2 0 3 10 15 17 19 21
13 13 13 13 14 14 15 16 16 17 17 17 18 18 18 19 19 18 18 17 17 16 11 7 6 2 3 6 3 2 2 4 6 9 9 9 8 5 3 2 2 4 5 4 3 4 2 1 2 3 3 1 3 5 2 2 4 5 3 2 1 2 6 2 0 3 4 6 2 1 7 8 7 3 4 15 18 14 11 6 5 3 5 10 13 16 17 18
15 14 14 14 15 15 16 17 18 18 18 18 18 19 19 19 20 19 19 18 18 15 9 6 5 2 5 5 2 2 4 5 7 9 9 9 7 5 4 3 4 5 4 3 4 4 2 1 2 4 3 1 3 4 3 3 3 4 2 1 3 3 4 3 4 5 3 4 3 5 12 7 3 3 10 18 13 9 11 9 7 6 8 10 12 15 17 17
17 17 17 16 16 16 17 18 19 20 20 20 20 20 20 20 20 20 19 19 19 15 7 5 5 3 6 4 3 3 3 5 7 8 7 7 7 5 4 4 4 6 4 4 4 2 1 3 3 2 1 2 3 2 2 3 0 1 1 3 6 6 3 3 4 3 2 4 5 8 13 6 2 2 10 8 1 2 7 9 8 8 11 12 12 13 15 17
19 19 19 19 18 18 18 19 20 21 22 22 22 21 21 21 21 21 20 21 19 13 6 5 4 4 6 4 5 4 3 5 6 7 6 6 7 5 5 5 4 6 5 3 3 3 4 7 8 3 1 2 3 2 1 1 1 0 2 5 7 6 6 6 6 4 3 3 5 7 11 6 2 5 15 5 5 4 6 8 9 10 12 12 12 12 12 14
21 20 21 21 21 21 21 21 21 22 23 23 23 23 22 21 22 21 22 22 18 10 6 4 2 4 4 3 6 6 5 6 6 6 6 6 7 6 6 5 4 5 4 2 4 6 6 9 9 2 0 2 3 1 1 1 1 0 1 5 5 6 7 7 4 3 4 3 4 3 8 8 8 13 18 5 6 4 5 8 9 11 11 10 11 10 10 12
23 22 22 22 22 22 22 22 23 23 24 24 24 24 23 22 22 22 23 22 14 6 4 3 2 5 4 2 5 7 8 7 6 4 5 7 7 6 5 4 5 5 4 4 6 8 8 9 5 1 1 2 1 1 2 2 1 1 2 3 4 6 5 5 3 3 5 2 3 3 8 8 12 18 14 4 6 5 6 9 9 9 9 9 10 9 10 12
23 23 23 24 23 23 22 22 23 24 24 25 24 24 23 23 22 22 23 18 9 4 4 3 3 5 4 3 2 6 9 8 6 5 5 8 8 6 6 5 5 5 4 6 9 8 7 7 5 4 2 1 1 3 2 2 1 2 1 1 2 4 2 5 3 4 6 1 1 3 7 10 7 12 9 4 6 6 8 11 10 10 9 8 9 10 11 13
22 23 23 24 24 24 24 22 23 23 24 24 24 24 23 22 22 22 20 13 5 4 3 2 4 5 2 4 2 5 8 7 7 8 7 9 9 6 6 7 7 8 7 8 9 9 7 6 4 3 2 1 2 3 2 2 2 1 2 3 2 3 2 4 5 5 4 1 3 5 6 12 12 6 5 4 5 7 10 11 11 12 11 10 10 10 11 12
21 22 22 23 24 25 24 23 23 23 23 23 24 24 22 22 22 20 15 7 4 4 3 3 6 5 4 3 2 3 6 6 7 9 8 9 8 6 8 9 8 8 8 8 10 9 6 4 1 0 1 2 3 3 3 4 3 2 3 5 3 4 3 1 4 3 3 2 7 9 7 10 11 4 5 5 6 8 10 12 14 15 13 11 10 9 10 10
20 21 21 22 23 24 24 22 22 22 22 23 23 23 22 21 19 14 8 3 1 2 3 2 6 5 3 1 2 3 3 5 7 8 8 8 8 9 10 7 5 6 8 7 6 4 1 2 1 1 1 1 2 2 4 6 6 2 2 4 4 5 5 4 3 2 2 4 7 10 10 14 16 12 7 7 9 9 12 15 18 17 13 11 9 9 10 11
19 19 20 21 21 22 22 21 21 21 21 22 21 23 22 18 14 9 4 2 1 3 3 2 5 4 3 2 2 1 2 3 6 7 8 7 9 11 7 4 5 5 5 3 2 1 1 1 1 2 2 2 3 5 6 6 5 4 3 5 5 5 6 7 4 3 5 5 7 9 11 17 21 20 19 13 10 12 16 17 19 19 14 11 10 11 11 11
18 18 18 19 20 21 20 18 19 19 20 21 19 20 18 11 8 5 3 2 2 2 1 2 4 2 2 1 2 0 2 3 5 7 8 7 9 10 4 5 5 3 3 3 3 1 0 2 2 3 5 7 8 10 11 7 3 4 4 5 7 6 9 10 3 3 4 5 9 13 14 17 20 19 21 19 10 12 16 17 18 17 12 9 10 11 10 12
16 16 16 17 19 20 17 16 18 17 17 19 18 16 9 3 3 2 1 1 4 3 2 2 4 3 4 2 2 2 2 4 5 6 9 8 8 7 3 3 2 2 3 3 3 1 1 4 5 9 10 8 9 12 9 2 0 2 2 4 8 8 10 11 2 5 3 5 10 15 16 17 20 20 20 21 14 13 18 18 18 15 11 11 13 11 10 13
15 16 15 15 18 18 15 14 17 16 14 14 14 9 2 0 3 3 2 5 6 4 3 2 2 7 8 2 4 5 1 3 5 5 10 10 8 7 4 4 4 5 3 1 3 1 1 6 11 13 9 2 4 7 5 2 2 4 5 5 7 8 9 9 1 4 5 3 8 12 15 17 19 20 21 21 18 18 20 18 19 18 14 12 13 11 10 11
14 15 13 13 16 16 13 14 16 15 12 10 8 4 1 1 4 2 1 5 5 3 4 3 2 8 9 5 6 6 3 3 4 6 11 10 5 5 4 5 6 4 2 3 3 2 3 10 13 5 3 6 4 2 4 4 4 3 4 4 6 6 6 7 1 3 4 4 7 9 13 17 18 20 23 22 17 16 18 17 18 18 16 15 11 8 9 10
13 13 10 10 14 15 12 13 15 13 10 9 6 2 0 1 2 3 2 4 5 2 3 4 4 7 6 5 7 9 6 6 4 5 13 12 4 3 4 6 6 2 4 8 7 5 4 8 7 3 7 6 3 3 5 3 3 5 4 4 8 4 2 5 1 2 4 6 8 11 12 14 15 17 20 18 11 10 13 15 16 16 17 16 8 6 9 12
11 11 9 9 12 12 11 13 11 10 10 7 4 2 1 2 3 2 2 3 4 3 4 5 4 5 5 2 8 12 7 4 3 3 12 13 5 3 5 6 5 3 6 11 10 9 9 4 1 5 5 6 3 4 7 5 4 7 7 8 10 6 6 8 2 4 6 6 4 9 12 11 8 8 10 6 2 5 7 10 13 14 14 12 6 6 10 12
11 11 10 9 9 11 13 10 7 9 9 4 1 1 1 2 3 2 2 3 4 2 2 5 4 4 5 4 6 8 2 2 2 1 9 10 4 5 3 2 4 8 8 9 8 10 10 3 4 4 3 4 5 5 7 8 5 5 8 13 14 9 8 7 3 5 7 4 1 5 10 8 4 5 5 2 2 4 3 6 11 12 9 8 7 8 10 12
10 10 9 8 8 12 11 4 4 10 6 1 1 1 1 2 2 0 2 3 5 2 1 4 5 6 7 4 2 3 1 2 1 3 5 5 2 2 2 3 2 4 5 7 5 5 3 1 2 3 5 6 6 6 7 9 5 5 4 7 10 9 7 6 2 3 5 4 0 3 7 9 2 6 5 3 4 6 5 7 11 11 8 8 9 9 10 11
9 8 8 8 9 11 6 1 6 8 1 0 4 2 1 2 2 1 2 4 5 4 4 1 1 4 6 2 1 3 2 2 2 3 2 1 1 1 3 5 3 1 4 4 3 3 3 4 2 4 5 6 6 6 7 11 6 3 1 2 4 5 5 5 4 5 5 4 2 3 7 11 8 8 9 7 8 9 11 13 12 12 10 9 9 10 11 11
9 8 8 8 8 7 5 5 8 4 1 3 5 3 2 2 2 1 1 6 3 4 4 1 1 2 3 1 1 1 1 1 2 1 1 1 1 1 4 7 4 4 4 4 6 2 3 5 7 8 6 6 7 2 6 13 7 1 2 2 4 4 3 4 4 6 4 4 5 7 9 10 9 7 7 8 10 10 13 15 15 14 11 9 9 11 12 11
11 9 8 8 8 6 6 7 5 3 5 5 4 4 1 1 2 2 0 5 2 3 2 2 3 2 3 3 2 1 1 1 0 1 1 1 2 0 3 4 2 3 2 4 5 1 2 3 4 7 7 6 4 3 2 8 5 2 4 4 5 3 3 2 4 4 3 4 7 8 10 8 9 5 7 2 6 10 12 12 13 13 8 6 8 10 11 9
14 11 10 9 7 6 5 5 5 4 5 5 4 2 0 1 1 2 5 6 1 2 2 2 2 2 5 5 3 1 2 1 1 1 1 2 2 1 1 1 2 2 1 3 5 1 2 2 2 3 4 2 5 5 3 1 2 5 5 3 3 2 2 1 2 1 5 7 8 13 16 12 9 2 9 6 6 10 11 9 10 10 7 7 8 8 9 9
16 15 14 11 7 4 3 3 4 2 2 3 2 1 1 1 1 6 8 3 0 1 2 3 2 4 7 6 2 3 3 2 2 5 3 3 3 2 2 3 2 2 3 4 6 3 3 2 2 2 1 4 6 5 4 3 2 4 3 1 1 2 2 2 2 2 6 7 4 8 12 14 11 4 7 7 5 8 10 9 9 11 9 7 7 7 8 8
18 17 17 15 11 7 5 5 4 2 2 1 3 3 2 2 4 7 3 2 0 3 3 3 2 4 5 3 1 2 3 2 4 6 4 4 5 6 6 6 5 3 4 5 4 2 3 5 3 2 0 3 5 4 3 2 2 3 3 3 3 4 2 3 3 4 7 6 2 3 3 8 14 10 7 7 5 7 9 8 9 10 9 7 7 7 6 6
20 19 19 18 16 12 10 8 6 5 3 4 4 2 2 5 8 5 5 2 2 1 1 1 1 3 5 4 3 3 1 2 4 4 3 3 4 6 6 4 4 3 3 4 2 2 3 1 5 5 2 4 9 8 4 4 6 8 7 6 5 4 2 5 5 3 5 4 2 5 2 6 9 9 13 18 15 13 10 9 10 9 8 6 4 5 5 6
22 21 21 21 20 16 11 10 8 7 5 5 4 3 3 9 6 4 7 7 2 1 2 2 3 3 4 2 3 4 3 4 6 5 4 4 3 6 7 7 7 3 1 3 2 3 5 5 6 8 3 8 15 11 3 5 7 8 5 3 5 5 4 6 5 5 6 6 2 4 2 5 4 2 7 14 15 14 11 10 9 7 6 2 1 2 4 6
25 24 24 23 24 21 15 13 11 8 6 5 3 3 7 10 3 3 6 5 2 1 2 2 3 4 3 3 2 4 5 4 5 5 6 6 5 5 6 8 11 6 2 3 2 3 6 8 4 4 0 9 12 5 4 6 5 4 2 2 5 5 5 4 4 2 3 7 5 5 4 7 3 2 1 3 6 10 10 10 9 8 8 4 2 5 6 6
27 26 26 27 29 27 22 18 15 11 6 4 4 5 10 11 4 3 5 5 5 5 6 1 2 5 5 3 3 4 3 2 3 4 5 6 6 6 3 3 10 13 9 6 2 3 4 4 4 3 2 4 3 1 2 1 3 5 3 5 3 1 3 5 4 1 1 7 8 4 7 9 5 5 5 6 6 8 8 10 11 10 10 7 5 7 8 7
28 25 24 27 30 30 27 23 18 12 4 2 7 9 8 7 4 4 3 3 3 5 7 5 5 6 6 4 5 6 4 2 4 5 4 4 4 7 6 3 6 15 17 10 4 4 4 3 3 4 1 1 2 2 2 3 1 5 4 5 2 2 1 3 3 1 3 8 7 6 12 13 9 6 4 7 8 9 10 11 10 9 9 7 7 9 9 7
29 21 19 25 31 31 29 26 20 14 5 2 9 13 7 3 4 5 5 4 3 5 7 7 5 6 7 6 4 6 7 5 7 6 4 4 4 5 9 6 6 14 20 14 5 3 2 3 3 2 2 4 1 2 3 1 2 1 2 1 1 2 3 3 3 4 6 7 7 12 18 15 10 7 3 8 11 12 13 10 7 9 10 7 9 11 9 5
25 12 8 18 30 32 31 29 20 10 4 5 10 11 6 5 4 3 5 6 4 5 8 9 6 5 6 6 2 5 8 7 8 6 6 6 4 5 9 7 7 13 18 15 8 3 2 4 3 1 1 3 3 4 6 5 2 1 1 2 1 2 3 3 3 3 5 7 7 13 17 12 6 5 6 10 12 12 12 9 8 11 12 9 9 10 6 5
14 3 1 15 30 33 33 27 14 6 6 8 10 9 4 3 3 3 7 7 4 4 6 8 6 6 6 4 1 3 7 7 6 7 5 5 4 4 8 6 4 7 10 11 8 3 2 3 4 1 0 2 5 8 10 10 8 6 5 6 4 2 0 2 3 2 3 6 6 8 13 12 2 4 6 9 10 10 9 8 8 9 9 9 8 8 7 7
7 3 3 22 36 37 30 17 7 7 6 7 11 11 7 4 3 4 5 5 5 3 2 4 6 8 7 5 3 3 5 5 6 6 5 6 6 4 7 10 7 7 6 5 5 5 3 4 6 4 3 5 7 6 5 5 7 9 9 9 9 7 4 3 6 4 2 6 8 7 10 13 4 4 3 5 6 7 7 8 7 6 8 9 9 9 9 8
4 4 8 30 46 41 24 8 7 7 6 9 8 6 6 5 4 5 4 4 4 3 1 2 5 7 7 7 7 4 4 5 6 7 5 7 9 6 7 11 9 9 8 5 8 8 4 2 6 8 6 6 3 0 2 4 2 3 4 6 8 8 8 8 8 6 3 6 10 6 8 12 4 4 2 3 4 4 5 7 7 5 7 8 9 9 7 7
3 2 10 36 52 40 17 5 7 7 8 10 7 6 6 5 4 5 5 6 5 3 4 4 5 7 8 7 6 5 6 6 7 7 3 4 8 9 7 8 9 8 5 4 5 4 2 1 5 7 6 4 0 3 1 2 1 4 6 7 8 9 10 8 4 3 2 6 10 5 6 12 4 3 4 5 3 3 3 5 6 5 5 7 8 8 7 8
3 2 5 30 49 35 13 7 8 10 11 9 10 12 8 4 5 8 7 7 6 5 6 8 7 7 7 7 7 8 8 8 8 8 5 5 6 5 6 10 12 8 6 5 5 5 3 4 5 5 6 6 4 3 3 3 5 5 6 8 10 11 11 4 2 1 4 12 15 7 8 13 4 2 6 2 2 4 5 2 3 4 4 5 6 6 7 8
2 1 2 15 31 22 8 6 7 9 12 12 14 15 11 6 8 11 10 7 7 6 5 6 5 5 7 8 10 12 11 10 9 7 6 7 4 1 3 10 13 12 9 7 7 7 5 5 6 8 9 8 10 10 4 4 7 5 3 7 11 14 14 8 4 6 10 15 15 9 11 14 9 8 12 4 2 6 5 3 3 5 5 6 5 5 6 7
2 3 2 4 11 10 6 3 3 5 9 11 10 10 13 12 6 5 7 8 10 10 5 2 2 4 7 9 10 12 13 13 11 6 5 6 2 2 2 7 11 11 7 5 6 6 4 5 11 15 15 13 15 15 5 6 7 7 7 9 12 15 18 12 8 11 10 6 9 13 17 17 15 19 23 15 8 9 8 5 5 7 7 7 6 6 7 7
3 4 5 5 5 6 7 7 7 6 6 7 6 6 12 16 9 3 6 8 10 10 5 4 6 8 8 10 11 12 13 12 9 8 10 8 3 2 1 2 6 8 3 2 4 4 3 6 13 19 20 18 19 22 18 8 8 10 9 11 13 15 17 16 16 17 9 1 8 18 21 19 16 20 27 25 17 15 15 12 12 10 7 7 7 8 10 10
4 3 6 8 7 7 10 12 13 14 12 8 6 6 11 14 12 10 8 7 7 8 6 6 11 15 17 17 14 11 10 10 10 10 12 11 7 5 3 1 4 5 3 2 2 3 3 7 11 15 19 19 19 24 26 20 14 11 11 12 13 15 19 22 23 20 12 10 16 20 21 19 15 20 28 25 17 15 17 17 17 15 8 5 7 10 11 10
5 4 3 7 8 9 14 18 18 19 19 14 9 9 13 16 17 16 9 5 5 8 11 11 14 19 23 20 15 10 7 8 12 13 11 12 11 8 6 6 3 2 1 1 1 1 2 6 10 13 16 17 19 23 25 22 19 18 17 14 14 19 22 20 18 18 19 21 22 21 22 20 18 23 25 18 14 15 16 17 19 20 17 13 12 14 15 14
5 4 2 4 7 7 11 14 14 13 15 15 11 11 14 18 19 16 11 11 10 8 12 17 20 19 20 19 16 14 14 16 19 17 13 13 11 7 5 5 3 3 3 2 3 2 4 8 11 12 12 14 19 24 25 23 21 20 18 15 19 25 22 18 18 20 20 21 21 20 20 18 20 23 20 16 18 19 19 21 22 23 23 19 16 17 20 20
11 12 9 5 4 5 7 8 10 10 10 12 13 12 15 18 19 17 15 17 18 14 13 20 23 18 15 15 16 18 20 23 24 23 20 17 13 9 6 3 3 3 2 4 5 3 5 8 10 10 9 12 17 22 23 22 20 15 12 18 26 26 20 19 21 20 17 18 20 18 15 15 18 19 17 19 23 22 21 22 23 22 20 15 14 17 20 21
13 15 12 7 3 6 8 7 8 9 8 11 15 17 18 20 21 19 14 11 17 20 18 18 19 14 11 15 19 23 24 24 24 24 21 18 15 12 10 9 10 8 6 8 7 5 5 6 7 8 8 11 17 20 17 14 12 9 14 24 28 24 22 25 25 23 22 19 16 13 12 15 17 18 19 21 21 20 19 20 22 22 18 14 16 19 19 19
Wind_Direction
15 13 11 8 7 7 7 8 8 10 11 12 13 13 15 17 18 16 12 11 13 12 3 357 337 283 256 246 243 254 282 315 312 232 221 233 204 188 185 188 208 217 231 278 185 176 183 213 189 175 175 166 341 105 135 45 52 233 227 237 250 229 209 181 192 196 328 9 159 177 197 213 203 165 167 169 213 219 209 212 216 227 233 214 120 122 153 157
8 7 7 4 3 2 3 4 3 4 5 6 8 8 9 10 12 12 11 7 6 6 1 356 346 307 268 250 248 254 276 305 298 243 234 227 195 180 168 182 208 199 192 244 196 186 207 220 176 169 180 190 332 221 177 110 264 224 206 249 252 213 169 172 212 206 233 311 136 184 204 220 222 151 157 211 215 202 224 224 209 230 229 201 170 158 158 162
3 0 360 359 359 358 358 0 359 359 360 1 2 4 5 5 6 6 7 5 2 359 353 352 348 320 283 259 248 251 281 307 291 244 224 210 193 185 181 206 214 191 184 198 191 199 220 176 161 166 179 196 75 274 216 25 260 214 216 250 241 160 261 226 222 223 223 251 195 195 188 215 229 138 157 222 236 211 224 226 201 222 227 202 173 164 165 170
358 354 352 353 353 352 354 355 355 355 355 356 357 359 1 1 2 2 2 2 1 355 347 345 346 331 294 270 243 241 279 296 268 191 191 195 190 187 199 228 209 189 173 168 165 173 163 137 145 156 189 188 93 260 229 31 315 179 223 267 98 121 261 201 204 231 206 238 251 187 156 216 215 159 190 212 243 241 232 227 216 228 229 191 166 166 172 177
351 348 347 347 346 347 348 348 349 349 349 351 352 354 356 357 357 359 358 356 358 354 345 338 339 339 308 274 223 208 207 265 207 157 172 183 185 179 186 197 188 179 164 170 145 131 133 124 134 143 210 190 160 215 200 71 8 199 209 313 89 166 251 152 165 221 159 199 232 187 189 207 144 182 215 210 234 251 241 221 223 238 239 171 164 171 175 182
342 341 341 341 342 341 342 342 343 343 344 345 346 350 351 353 353 355 355 352 354 352 344 332 332 336 320 245 193 182 203 262 152 162 175 178 184 182 187 176 170 175 173 181 150 139 129 124 180 181 183 183 186 211 154 104 303 253 208 172 198 207 249 150 115 176 169 203 205 198 222 157 172 224 220 217 234 246 77 96 211 248 243 163 163 170 177 187
334 334 334 336 337 337 338 337 337 337 338 339 341 345 346 348 349 351 353 350 351 350 343 330 324 321 218 162 159 158 218 278 204 192 192 184 191 194 200 173 169 176 180 192 165 158 129 137 196 185 173 159 193 200 129 147 218 263 243 173 197 217 239 242 99 183 199 225 218 138 256 207 224 241 213 227 238 243 200 121 118 168 178 164 165 174 185 190
327 327 327 330 330 331 333 332 333 332 332 333 335 339 342 345 345 346 348 347 347 346 339 329 320 298 168 160 161 170 233 251 212 202 199 192 195 202 212 202 194 174 180 197 165 165 158 124 160 183 209 169 183 177 150 211 198 224 243 168 169 220 239 246 234 234 216 234 229 192 245 233 231 278 278 249 245 242 230 187 162 176 168 178 185 186 190 193
323 322 322 323 323 324 327 328 329 328 329 330 331 334 338 341 341 341 342 342 343 340 331 325 318 229 174 158 170 251 229 207 198 194 192 194 197 200 210 213 200 186 180 136 134 171 190 202 179 207 237 92 179 172 159 232 210 202 221 189 221 241 246 245 244 232 212 235 190 227 253 240 194 316 270 252 252 241 223 205 187 192 199 200 199 195 194 196
322 322 321 320 320 321 322 324 324 325 326 326 329 331 334 339 339 338 338 337 338 332 312 309 314 222 185 166 183 241 217 184 187 187 189 194 194 192 201 208 193 192 187 116 137 171 165 187 154 179 244 103 186 169 157 229 331 166 227 268 250 258 256 228 239 213 208 242 198 235 264 261 131 258 258 244 201 187 188 196 198 204 218 215 207 202 200 201
322 322 322 321 321 321 321 321 321 322 322 324 327 328 332 337 336 335 335 334 335 327 290 293 311 221 190 190 213 227 193 184 191 187 188 188 189 193 199 206 193 192 188 122 145 133 124 158 137 124 275 134 173 174 197 235 32 136 269 274 249 256 251 221 233 226 224 233 196 237 266 262 114 227 246 227 122 171 181 196 202 211 224 219 212 206 201 208
321 322 321 321 322 322 322 322 321 320 320 321 324 326 331 334 334 333 332 333 333 318 274 273 276 192 172 213 232 225 200 190 193 188 192 190 186 190 190 194 184 186 192 146 146 142 136 151 150 158 297 155 178 186 186 118 16 239 271 280 253 264 257 210 200 207 209 208 174 231 268 236 191 228 244 206 131 175 201 218 210 213 224 219 213 208 204 209
321 322 322 321 322 322 323 324 323 322 320 320 322 325 329 333 334 331 329 331 330 306 260 261 227 181 178 251 229 217 213 202 198 193 191 185 177 176 171 163 157 165 183 168 149 142 150 158 159 104 110 193 235 103 140 104 347 214 181 282 273 274 252 177 139 172 188 177 149 216 286 253 197 222 239 148 144 190 215 230 224 218 220 217 213 209 210 205
321 322 323 323 324 323 324 325 324 323 321 321 322 323 328 333 332 328 327 329 325 285 251 256 210 169 193 265 226 209 211 207 209 199 183 179 166 152 145 136 136 137 134 146 141 135 150 156 138 112 100 307 80 130 165 148 209 226 181 232 253 274 232 148 157 184 181 159 154 200 272 278 237 220 218 144 174 213 239 238 231 226 213 214 215 211 214 206
318 320 322 322 324 324 324 326 324 323 322 321 322 324 328 331 329 324 322 323 314 271 240 224 179 157 233 266 235 211 205 206 211 200 192 184 170 147 140 134 120 117 115 124 129 123 128 137 139 133 102 358 167 184 236 213 188 234 259 236 201 245 239 162 172 199 212 150 190 206 243 275 279 242 169 138 184 214 246 248 241 235 219 213 212 211 216 210
318 321 322 321 324 323 323 326 324 322 322 321 322 322 326 329 324 318 315 315 298 252 209 194 179 176 281 263 166 205 206 209 206 198 193 184 185 170 144 132 112 109 109 110 117 112 109 111 92 287 155 204 211 224 267 259 225 175 250 265 240 237 273 214 164 203 261 162 191 222 252 276 279 262 141 150 190 210 244 257 254 244 229 219 213 213 214 207
320 322 322 322 324 322 323 325 323 322 321 320 321 321 325 326 316 310 309 300 294 175 161 167 164 178 273 197 163 225 203 197 192 190 187 178 187 173 146 122 95 104 107 108 117 115 87 71 83 227 177 219 207 210 255 264 251 194 201 257 256 242 270 271 200 155 187 207 220 222 238 260 266 271 255 202 189 217 247 258 261 254 236 223 216 215 211 206
323 324 324 325 325 322 324 326 324 321 320 320 322 322 324 320 307 297 272 226 119 136 150 123 152 191 250 179 204 244 116 167 175 176 178 162 167 170 155 121 124 128 117 123 165 195 308 75 219 241 199 199 196 195 225 249 261 258 236 255 273 246 242 255 242 161 157 204 241 229 232 253 262 270 273 255 202 218 249 254 260 260 245 230 222 222 213 209
323 324 325 326 327 325 328 330 326 325 322 320 323 325 324 320 303 271 214 179 169 213 236 174 185 234 292 244 253 244 122 151 163 175 175 155 157 169 152 114 133 146 143 179 196 173 236 188 204 242 224 213 204 205 224 241 257 265 262 261 271 263 254 260 238 152 179 223 242 243 245 256 264 267 272 272 232 213 245 252 257 261 251 239 232 224 208 212
321 322 319 323 326 327 333 334 330 332 328 325 334 335 326 336 322 271 177 240 229 255 331 179 200 277 288 261 155 168 189 181 188 193 184 172 158 156 140 109 123 195 196 197 172 128 259 227 226 238 234 217 202 210 226 265 63 234 249 244 253 259 264 269 248 128 168 242 248 248 254 259 266 268 269 273 260 238 248 249 254 258 249 245 239 223 204 217
318 314 313 322 325 327 336 338 334 337 332 331 341 336 304 174 294 299 326 273 243 246 270 223 225 269 264 236 159 157 139 217 212 192 182 174 160 168 172 165 188 206 204 120 103 120 223 231 239 242 238 193 179 203 193 160 176 221 238 249 256 251 260 273 281 134 157 228 254 253 263 262 260 267 267 266 258 252 257 255 258 261 256 250 237 221 210 217
317 312 312 321 322 324 336 340 336 335 334 336 337 314 245 260 259 248 315 278 262 226 241 249 270 266 255 242 215 162 130 239 225 186 177 166 172 200 170 167 205 207 144 121 143 184 217 239 247 243 108 86 75 152 180 195 196 209 229 252 264 259 276 283 261 125 158 222 272 272 276 272 263 261 261 260 254 253 261 259 260 263 260 256 239 213 207 212
318 322 319 317 321 324 335 340 334 333 338 344 343 318 214 116 163 153 170 279 283 217 201 211 225 244 240 238 210 173 187 226 217 193 176 165 175 197 167 186 206 172 158 187 195 195 214 249 259 86 114 135 93 119 173 185 195 208 212 234 252 253 290 272 252 102 192 227 285 290 281 271 260 255 254 256 254 257 266 262 260 258 255 260 252 201 201 211
317 329 326 322 326 328 335 335 333 340 344 345 348 335 221 156 119 130 217 275 277 240 218 210 217 236 224 183 175 181 205 217 200 195 173 173 166 149 191 197 184 199 208 200 200 219 235 242 99 93 139 173 151 155 181 197 216 217 214 227 247 250 237 249 316 345 258 227 269 293 286 265 235 239 254 254 228 252 264 259 259 254 245 253 253 205 209 217
302 321 325 322 325 330 331 330 340 352 350 357 12 2 125 166 125 81 306 270 249 269 255 212 206 215 187 117 148 177 203 212 207 151 169 187 172 141 183 172 195 225 204 175 192 237 248 209 126 124 131 174 182 193 199 202 219 231 221 224 239 256 253 254 346 344 291 245 204 326 307 282 170 181 244 249 236 246 226 230 252 254 235 226 230 217 216 221
282 306 321 322 325 330 333 338 354 348 351 58 8 347 135 191 179 63 316 273 239 213 140 193 189 178 165 122 129 159 184 226 51 75 160 202 213 169 188 145 211 245 166 148 185 239 243 110 124 165 157 174 205 234 204 185 216 248 219 215 231 248 260 263 279 283 279 274 57 22 303 284 195 180 212 215 251 255 240 237 246 250 232 210 214 207 210 215
269 281 298 314 327 334 344 327 321 338 359 20 345 328 262 217 219 301 308 277 251 168 127 210 214 165 162 147 189 169 209 223 80 80 144 211 231 217 216 188 174 211 161 154 201 216 147 121 138 171 168 183 216 244 187 171 207 247 145 134 184 202 222 227 229 240 267 307 290 192 239 273 268 217 221 233 244 258 262 260 259 253 238 219 209 197 206 210
265 263 277 301 320 332 339 305 309 329 241 311 349 332 294 225 237 2 278 265 264 116 118 153 104 120 123 109 199 176 306 291 132 144 55 330 229 156 227 220 188 167 176 197 217 218 118 159 173 167 177 203 213 234 158 175 203 294 100 115 122 139 174 182 216 248 273 310 266 205 200 265 271 203 209 244 238 246 255 253 256 256 242 224 211 200 208 209
253 250 259 279 301 313 308 302 300 270 267 298 338 329 337 213 257 67 192 258 238 103 87 121 141 141 105 130 201 140 2 315 114 122 92 178 211 173 240 232 148 146 179 232 238 293 75 209 196 164 185 213 184 60 131 193 203 115 125 101 88 91 99 154 236 257 263 266 250 200 177 246 276 177 151 198 221 232 246 245 247 253 246 224 213 204 202 200
244 241 243 257 283 292 283 288 281 273 278 274 285 318 168 206 214 179 232 250 210 99 78 130 176 155 134 157 198 181 204 261 80 120 126 157 167 29 287 228 109 156 195 279 268 255 93 25 325 204 205 181 111 79 31 11 114 132 148 113 109 139 105 159 244 249 263 257 225 202 191 214 268 187 150 169 186 205 224 235 244 250 247 226 211 201 193 190
241 237 234 239 253 258 245 262 264 270 305 261 232 121 174 186 135 220 234 251 57 142 141 172 177 147 161 174 177 158 184 210 159 173 176 161 168 155 189 195 160 177 215 247 251 227 156 172 222 222 140 97 106 97 56 46 112 155 163 143 229 229 163 193 188 164 247 258 196 196 195 202 237 237 157 171 175 200 219 226 240 245 239 221 200 191 187 181
236 231 230 233 238 242 235 229 237 251 268 192 151 146 164 199 226 225 223 35 162 190 170 177 181 185 181 172 198 163 171 208 182 184 179 166 185 186 200 199 168 192 230 218 227 216 196 201 167 107 6 165 153 130 91 93 176 191 176 168 240 263 244 232 223 189 234 259 145 128 157 215 241 249 222 216 212 218 225 230 246 250 238 218 193 179 176 170
233 227 226 228 228 233 239 235 234 242 226 151 156 136 102 229 238 188 154 197 214 162 116 105 131 174 153 151 204 167 154 231 165 180 191 160 203 211 230 236 190 240 253 185 203 219 227 247 139 163 238 190 181 186 194 184 179 188 182 180 211 229 240 247 243 232 251 260 158 130 152 246 259 255 231 229 229 222 219 228 242 250 244 233 190 158 160 174
232 224 221 223 224 227 232 226 219 219 197 157 167 128 153 231 242 125 172 207 210 48 71 96 109 143 154 187 208 165 204 220 157 167 191 163 205 221 224 224 208 236 335 169 226 206 238 268 173 175 177 166 188 205 178 121 160 188 181 187 221 209 213 247 261 270 286 295 233 155 190 244 260 287 215 218 225 219 215 224 231 242 253 266 62 152 175 188
231 222 220 218 217 215 209 205 208 209 196 173 166 157 206 230 214 133 201 189 167 184 107 80 120 150 207 234 224 214 225 220 147 155 192 185 202 210 203 204 194 184 150 194 224 166 237 267 165 147 298 163 180 200 103 106 154 181 112 191 236 218 205 248 290 277 311 308 266 183 221 248 244 302 217 181 220 213 215 228 224 232 236 210 225 232 206 199
227 218 216 212 210 206 195 195 201 197 198 194 183 194 224 235 201 170 201 159 167 157 125 157 167 170 223 213 206 228 228 234 170 168 206 206 225 222 199 198 185 186 189 189 197 173 230 269 125 105 313 170 174 3 123 191 178 149 162 201 221 334 212 233 267 111 99 279 266 214 247 265 264 245 198 166 207 208 214 229 221 227 230 210 225 237 218 205
217 208 207 206 207 200 190 191 188 172 167 197 212 220 233 243 206 178 177 137 146 136 143 211 196 173 210 210 204 194 168 201 184 184 203 192 229 209 187 229 187 188 202 202 219 225 222 262 175 158 171 145 338 359 79 338 32 139 191 203 133 35 283 242 263 263 229 254 268 268 268 273 271 259 171 158 206 218 221 227 220 230 236 220 232 241 229 209
209 204 212 209 203 194 187 186 172 150 125 153 229 240 237 225 207 176 159 130 129 157 179 220 202 170 198 211 198 164 170 191 166 178 210 190 226 180 162 204 190 190 209 209 228 251 197 254 228 167 113 113 124 228 138 4 321 146 257 229 126 211 186 178 227 246 245 248 269 278 279 277 257 246 187 175 201 219 227 224 216 230 232 220 234 245 236 208
204 203 233 205 193 190 183 175 158 140 143 179 222 239 226 223 236 186 176 170 163 180 200 222 216 199 208 201 166 153 181 194 164 178 211 193 215 172 158 189 195 200 208 195 203 231 163 240 239 77 34 120 147 215 188 179 175 23 258 194 271 250 186 183 200 217 241 244 266 280 282 280 240 200 199 192 193 210 220 212 210 227 228 218 228 242 236 217
194 204 259 174 181 184 174 162 150 154 189 200 221 232 223 245 249 215 216 206 194 196 210 221 212 216 221 191 155 188 199 212 190 194 214 191 206 200 178 187 183 199 202 187 207 228 117 236 238 120 19 189 191 202 198 192 170 162 195 185 184 207 278 292 248 225 246 245 254 265 270 273 262 128 168 177 185 203 204 201 210 220 228 228 228 232 225 220
173 243 178 164 172 170 159 154 171 185 199 221 235 240 237 255 253 229 234 223 228 250 225 216 210 219 226 213 221 202 195 224 209 203 223 205 216 225 191 195 178 143 145 169 218 217 168 211 226 209 209 224 224 206 205 213 175 174 190 185 186 186 166 222 232 218 210 235 237 236 256 268 266 108 137 154 177 200 184 192 210 208 218 227 228 227 218 211
188 245 169 163 166 160 152 171 205 189 213 220 226 245 229 236 255 234 220 207 231 269 293 229 217 218 225 224 226 203 185 220 208 206 230 216 218 222 191 193 178 142 139 169 205 204 171 162 217 231 237 234 243 29 327 296 230 202 220 198 196 191 181 202 222 217 188 228 244 243 260 267 255 105 155 190 181 193 174 185 201 196 207 216 219 222 219 217
217 214 161 167 166 160 157 200 199 198 227 225 238 259 224 223 258 236 214 201 208 221 219 224 218 221 231 228 225 208 202 217 206 198 224 234 225 223 198 169 154 152 161 175 192 181 106 130 213 243 263 254 143 83 63 301 181 214 240 218 199 201 202 208 226 235 203 222 234 227 246 260 261 113 238 238 181 200 192 187 198 195 204 213 211 210 209 216
200 130 150 176 174 169 170 199 196 207 221 226 241 244 236 244 248 235 218 197 199 208 218 229 224 221 229 223 224 224 213 218 222 207 210 238 236 217 187 162 158 178 201 185 176 169 176 202 201 225 253 254 249 215 188 205 201 216 236 210 198 207 212 228 321 266 242 237 235 232 244 253 251 168 241 230 112 251 242 194 226 227 220 223 214 206 206 209
191 125 55 188 187 187 199 202 193 206 215 224 234 235 239 250 243 237 228 214 220 222 225 240 230 221 229 227 237 239 226 227 238 226 212 233 254 329 191 179 179 199 215 199 178 165 182 196 186 209 228 227 236 239 210 165 194 233 258 201 198 205 207 214 230 223 236 240 235 234 249 256 265 268 260 227 137 257 244 171 237 250 243 246 239 225 219 214
205 192 124 183 203 219 247 249 218 200 207 222 234 236 235 240 255 248 221 223 233 228 234 300 264 238 236 230 243 248 239 236 239 242 243 239 252 10 243 201 202 213 218 212 193 166 172 197 195 214 228 225 234 248 252 110 153 207 221 197 198 210 210 211 223 228 233 239 231 235 246 258 268 273 272 266 250 259 254 218 223 230 223 228 234 239 236 227
228 207 171 162 201 228 246 262 255 231 210 208 207 216 228 234 250 246 200 215 227 219 220 253 239 238 240 235 244 252 249 248 246 246 254 255 258 319 300 211 235 242 234 234 220 179 192 223 213 222 233 232 239 251 253 227 192 203 206 199 202 210 211 215 227 230 227 239 243 240 245 256 263 267 270 270 263 262 267 266 261 255 232 203 212 230 234 231
235 225 172 172 186 198 210 223 226 224 224 214 202 216 226 229 233 228 213 217 223 200 191 224 225 224 230 231 234 247 255 263 265 254 254 263 269 282 294 232 257 272 254 232 223 164 208 240 231 234 243 242 245 253 255 252 244 233 229 226 220 216 212 217 229 233 224 231 243 245 249 256 259 258 260 263 264 263 268 271 272 272 260 198 207 229 235 230
244 266 197 193 204 197 197 206 210 213 217 216 211 217 223 227 229 227 218 214 224 202 197 219 222 216 224 226 224 231 230 237 252 248 248 262 263 262 263 248 256 345 4 237 247 148 212 247 246 252 260 257 254 258 259 261 263 260 258 253 244 236 226 222 235 238 229 236 246 253 258 260 260 257 258 266 275 273 274 277 279 279 274 263 258 260 261 253
249 278 284 214 229 220 202 205 205 206 212 214 215 217 220 226 229 229 218 209 220 212 199 220 228 221 220 219 216 222 217 218 235 239 235 247 249 242 250 253 273 353 20 330 294 256 232 249 255 259 263 257 254 255 257 259 262 263 264 259 248 246 241 234 240 241 237 245 252 253 259 261 256 257 265 277 278 276 277 278 278 277 275 275 273 270 270 269
270 282 286 262 236 224 215 211 202 203 207 207 213 219 223 227 228 231 230 218 219 221 206 215 227 229 226 220 216 224 223 221 230 235 235 239 239 235 236 246 280 303 315 271 259 232 229 246 250 250 254 251 246 248 251 255 260 265 262 250 245 246 245 241 242 244 243 251 255 253 253 252 252 259 267 267 267 270 273 272 271 271 272 275 273 268 270 274
282 283 280 272 238 198 206 218 210 209 209 204 209 214 219 226 226 228 239 228 220 228 228 223 226 229 229 225 220 224 226 224 226 231 235 238 240 239 235 230 232 230 230 241 238 215 213 232 239 234 242 248 245 246 253 259 262 254 237 238 242 247 250 250 250 250 246 246 252 254 250 251 257 264 264 262 263 265 265 266 268 270 275 280 275 271 274 278